User: anonymous   Login
Location: Deuil
(48.9767°N, 2.3272°E)
Time: 14:42:43
(UTC+00:00)
Language:

SJ-11-01 - Orbit

View from above orbital plane
View from above orbital plane
View from above satellite
View from above satellite

Ground track
Ground track

The orbit data is extracted from the following two-line orbital elements,

1 36088U 09061A   22022.10566762  .00000181  00000-0  46660-4 0  9998
2 36088  97.9400  43.3356 0012881  47.3691 312.8597 14.60259674649783
Epoch (UTC): 22 January 2022 02:32:09
Eccentricity: 0.0012881
inclination: 97.9400°
perigee height: 683 km
apogee height: 701 km
right ascension of ascending node: 43.3356°
argument of perigee: 47.3691°
revolutions per day: 14.60259674
mean anomaly at epoch: 312.8597°
orbit number at epoch: 64978

The dashed part of the orbit path shows where the satellite is in the earth's shadow,  

DLR